الصفحة الرئيسية
METAR-TAF:

METAR-TAF

مطار :

Griffith, أستراليا

دائرة عرض: 34-15-06S, خط طول: 146-04-00E, ارتفاع: 134 متر

مراقبة الطقس الحالي

تاريخ ووقت الإصدار 49 دقيقة قبل الساعة 20:00UTC
رياح هادئة
درجة الحرارة 3°درجة مئوية
الرطوبة 93%
ضغط 1023 hPa
الرؤية 10 كم أو أكثر

METAR: YGTH 172000Z AUTO 00000KT 9999 // NCD 03/02 Q1023

زمن: 06:49 (20:49 UTC)


TAF: مفقودة

أرصاد الطقس والتوقعات من أكثر من 4000 مطار (تقارير الطقس للمطار METAR والتنبؤ بالطقس بالمطارTAF).

المحطات المتاحة هي النقط الصفراء والحمراء على الخريطة.

حرك المؤشر فوق النقطة لمعرفة اسم المحطة.

ثم انقر لمعرفة أرصاد وتوقعات الطقس.

لتغيير الخارطة: اضغط على الأزرار الخضراء مع رمز الصليب الأسود للتكبير. على الزر الأخضر مع شرطة للتصغير، أو على الأسهم الخضراء للخرائط المجاورة.


METAR-TAF: